Location: Newark
(50.0306°N, 2.3272°E)
Time: 23:02:18
(UTC+00:00)

Explorer 7 - All Passes

Search period start: 08 December 2019 00:00
Search period end: 18 December 2019 00:00
Orbit: 485 x 680 km, 50.3° (Epoch: 08 December)

Date Brightness Start Highest point End Pass type
(mag) Time Alt. Az. Time Alt. Az. Time Alt. Az.
08 Dec - 16:21:42 10° SSW 16:25:59 31° SE 16:30:19 10° E visible
08 Dec - 18:01:21 10° WSW 18:06:16 76° SSE 18:11:09 10° E visible
08 Dec - 19:42:02 10° W 19:46:59 87° N 19:51:47 10° E visible
08 Dec - 21:22:48 10° WNW 21:27:34 56° SSW 21:32:07 10° SE night (unlit)
08 Dec - 23:04:17 10° W 23:07:27 18° SW 23:10:31 10° S night (unlit)
09 Dec - 14:49:14 10° SSE 14:51:05 12° SE 14:52:58 10° ESE daylight
09 Dec - 16:26:11 10° SW 16:30:47 42° SSE 16:35:24 10° E visible
09 Dec - 18:06:17 10° WSW 18:11:13 86° SSE 18:16:07 10° E visible
09 Dec - 19:47:01 10° W 19:51:58 88° S 19:56:45 10° ESE visible
09 Dec - 21:27:49 10° W 21:32:24 43° SSW 21:36:48 10° SE night (unlit)
09 Dec - 23:10:16 10° WSW 23:12:03 12° SW 23:13:48 10° SSW night (unlit)
10 Dec - 14:52:27 10° S 14:55:42 18° SE 14:58:58 10° E daylight
10 Dec - 16:30:51 10° SW 16:35:37 54° SSE 16:40:25 10° ENE visible
10 Dec - 18:11:15 10° W 18:16:12 88° N 18:21:05 10° E visible
10 Dec - 19:51:59 10° W 19:56:56 78° SSW 20:01:41 10° ESE visible
10 Dec - 21:32:53 10° W 21:37:11 32° SW 21:41:19 10° SSE night (unlit)
11 Dec - 14:56:26 10° SSW 15:00:22 25° SE 15:04:22 10° E daylight
11 Dec - 16:35:38 10° WSW 16:40:30 68° SSE 16:45:24 10° ENE visible
11 Dec - 18:16:14 10° W 18:21:11 86° N 18:26:03 10° E visible
11 Dec - 19:56:58 10° WNW 20:01:51 65° SSW 20:06:34 10° ESE visible
11 Dec - 21:38:05 10° W 21:41:54 23° SW 21:45:35 10° SSE night (unlit)
12 Dec - 15:00:45 10° SSW 15:05:06 34° SE 15:09:32 10° E daylight
12 Dec - 16:40:31 10° WSW 16:45:26 80° SSE 16:50:22 10° E visible
12 Dec - 18:21:13 10° W 18:26:10 88° N 18:31:02 10° E visible
12 Dec - 20:01:57 10° WNW 20:06:43 52° SSW 20:11:20 10° SE visible
12 Dec - 21:43:34 10° W 21:46:34 16° SW 21:49:28 10° S night (unlit)
13 Dec - 13:27:50 10° SSE 13:30:10 14° SE 13:32:31 10° ESE daylight
13 Dec - 15:05:18 10° SW 15:09:54 45° SSE 15:14:36 10° E daylight
13 Dec - 16:45:28 10° W 16:50:23 89° S 16:55:20 10° E visible
13 Dec - 18:26:11 10° W 18:31:08 85° SSW 18:36:00 10° ESE visible
13 Dec - 20:06:58 10° W 20:11:33 40° SSW 20:15:58 10° SE visible
13 Dec - 21:49:58 10° WSW 21:51:08 11° SW 21:52:18 10° SW night (unlit)
14 Dec - 13:31:22 10° S 13:34:47 20° SE 13:38:16 10° E daylight
14 Dec - 15:10:01 10° SW 15:14:45 58° SSE 15:19:36 10° ENE daylight
14 Dec - 16:50:26 10° W 16:55:21 87° N 17:00:18 10° E visible
14 Dec - 18:31:09 10° W 18:36:05 74° SSW 18:40:55 10° ESE visible
14 Dec - 20:12:04 10° W 20:16:18 29° SW 20:20:25 10° SSE visible
15 Dec - 13:35:28 10° SSW 13:39:28 27° SE 13:43:35 10° E daylight
15 Dec - 15:14:50 10° WSW 15:19:39 72° SSE 15:24:34 10° ENE daylight
15 Dec - 16:55:25 10° W 17:00:20 86° N 17:05:17 10° E visible
15 Dec - 18:36:07 10° WNW 18:40:59 61° SSW 18:45:46 10° ESE visible
15 Dec - 20:17:20 10° W 20:21:00 21° SW 20:24:36 10° S visible
16 Dec - 13:39:52 10° SW 13:44:13 37° SSE 13:48:43 10° E daylight
16 Dec - 15:19:44 10° WSW 15:24:34 83° S 15:29:32 10° E daylight
16 Dec - 17:00:24 10° W 17:05:20 90° ENE 17:10:16 10° E visible
16 Dec - 18:41:07 10° W 18:45:51 48° SSW 18:50:31 10° SE visible
16 Dec - 20:22:56 10° W 20:25:38 15° SW 20:28:19 10° SSW visible
17 Dec - 12:06:37 10° SSE 12:09:15 15° SE 12:11:56 10° E daylight
17 Dec - 13:44:27 10° SW 13:49:02 49° SSE 13:53:45 10° E daylight
17 Dec - 15:24:41 10° W 15:29:33 89° NNE 15:34:30 10° E daylight
17 Dec - 17:05:22 10° W 17:10:18 82° SSW 17:15:13 10° ESE visible
17 Dec - 18:46:09 10° W 18:50:39 37° SSW 18:55:05 10° SSE visible
